NOAA 16 DEB, 41290

Orbit data source: Space-Track

NOAA 16 DEB, 41290 is space debris in SSO originally from a launch on Thu, 21 Sep 2000 UTC launched from the Air Force Western Test Range (AFWTR). Debris objects in space refer to the collection of defunct objects orbiting the Earth. Examples of debris include non-operational satellites, rocket bodies, and fragments generated from explosions, collisions, or faulty payload assembly.

Loading next visibility...
Identifier
41290, 2000-055GS
Orbit
SSO
Country
Flag of USUS
Related business
Manufacturer
Unknown
Mission
Spacecraft
Bus & Motor
Unknown
Mass
Unknown
Launch date (UTC)
2000-09-21 (25 years ago)
Launch vehicle
Unknown
Launch site
Air Force Western Test Range (AFWTR)
Object type
Payload
Rocket body
Debris
Shape & HBR
Unknown shape, 0.1 m
Radar Cross Section
Small (<0.1 m²)

Expand to show TLE details & history
Last TLE update: 18 hours ago

TLE from 18 hours ago
0 NOAA 16 DEB
1 41290U 00055GS  25297.05946432  .00020459  00000-0  40145-2 0  9990
2 41290  99.0030 156.6404 0015317  95.0276 265.2672 14.62655246512099
Epoch: 2025-10-24T01:25Z
TLE epoch observation values (Epoch: 2025-10-24T01:25:37.717Z)
Latitude
0.00001°
Longitude
102.52344°
Altitude
688.486 km
Speed
7.512 km/s
True Right ascension
10h 26m 33s
True Declination
0° 00' 00"
Sunlit
Object was in daylight at epoch
Visualization orbit readout
Latitude
Unknown
Longitude
Unknown
Altitude
Unknown
Speed
Unknown
Apparent Right ascension
Unknown
Apparent Declination
Unknown
Sunlit
N/A
Visualization observer readout
Local Sidereal Time
14:25:48
Azimuth
Unknown
Elevation
Unknown
Doppler factor
Unknown
Orbital elements
Apogee altitude
692.543 km
Perigee altitude
670.916 km
Semi-major axis
7,059.867 km
Eccentricity
0.00153
Inclination
99.003°
RAAN
156.6404°
Arg. of periapsis
95.0276°
True anomaly
265.09231°
Mean anomaly
265.2672°
Eccentric anomaly
265.17975°
Mean motion
3.65888 °/min
Orbital period
98.39 mins
BSTAR
0.0040145
Loading maneuver chart data...
Computing Atmospheric mass density...

Documentation

Showing up to 5 results
|